When you browse on this site, cookies collect data to enhance your experience and personalize the content and advertising you see.
Visit our Privacy Policy to learn more. By continuing to use the site, you agree to this use of cookies and data.
  • In Schweiz
  • Länderverzeichnis
  • Für 7 Tage
  • Wassertemperatur
  • Wetterkarte
  • Widgets
  • user-avatar
    Anmelden

    Stündliche Wetter Shuvayka

    Heute, 25 Februar, Dienstag

    Zeit Temperatur Niederschläge Wind Luftdruck Luftfeuchtigkeit
    00:00 -3°C° 0 mm 2 m/S 729 mmHg 88%
    01:00 -4°C° 0 mm 3 m/S 729 mmHg 88%
    02:00 -4°C° 0 mm 3 m/S 729 mmHg 89%
    03:00 -4°C° 0 mm 4 m/S 730 mmHg 90%
    04:00 -4°C° 0 mm 4 m/S 730 mmHg 88%
    05:00 -4°C° 0 mm 4 m/S 730 mmHg 86%
    06:00 -5°C° 0 mm 4 m/S 730 mmHg 84%
    07:00 -6°C° 0 mm 5 m/S 730 mmHg 84%
    08:00 -5°C° 0 mm 5 m/S 731 mmHg 83%
    09:00 -5°C° 0 mm 5 m/S 731 mmHg 82%
    10:00 -4°C° 0 mm 5 m/S 731 mmHg 78%
    11:00 -4°C° 0 mm 5 m/S 731 mmHg 74%
    12:00 -2°C° 0 mm 5 m/S 732 mmHg 70%
    13:00 -2°C° 0 mm 5 m/S 732 mmHg 67%
    14:00 -1°C° 0 mm 5 m/S 732 mmHg 65%
    15:00 -1°C° 0 mm 4 m/S 732 mmHg 62%
    16:00 -2°C° 0 mm 4 m/S 732 mmHg 64%
    17:00 -2°C° 0 mm 3 m/S 732 mmHg 66%
    18:00 -2°C° 0 mm 3 m/S 732 mmHg 68%
    19:00 -4°C° 0 mm 3 m/S 733 mmHg 70%
    20:00 -4°C° 0 mm 3 m/S 733 mmHg 72%
    21:00 -4°C° 0 mm 3 m/S 733 mmHg 74%
    22:00 -5°C° 0 mm 3 m/S 733 mmHg 77%
    23:00 -5°C° 0 mm 3 m/S 733 mmHg 79%

    Morgen, 26 Februar, Mittwoch

    Zeit Temperatur Niederschläge Wind Luftdruck Luftfeuchtigkeit
    00:00 -5°C° 0 mm 3 m/S 733 mmHg 81%
    01:00 -5°C° 0 mm 3 m/S 732 mmHg 82%
    02:00 -5°C° 0 mm 3 m/S 732 mmHg 84%
    03:00 -5°C° 0 mm 3 m/S 732 mmHg 86%
    04:00 -5°C° 0 mm 4 m/S 732 mmHg 88%
    05:00 -5°C° 0 mm 4 m/S 731 mmHg 90%
    06:00 -7°C° 0 mm 4 m/S 730 mmHg 91%
    07:00 -6°C° 0 mm 5 m/S 730 mmHg 91%
    08:00 -6°C° 0 mm 5 m/S 730 mmHg 91%
    09:00 -5°C° 0 mm 6 m/S 729 mmHg 91%
    10:00 -4°C° 0 mm 6 m/S 729 mmHg 92%
    11:00 -3°C° 0 mm 6 m/S 728 mmHg 93%
    12:00 -3°C° 0 mm 6 m/S 728 mmHg 94%
    13:00 -2°C° 0.3 mm 6 m/S 728 mmHg 95%
    14:00 -2°C° 0.3 mm 6 m/S 727 mmHg 96%
    15:00 -2°C° 0.3 mm 7 m/S 727 mmHg 97%
    16:00 -1°C° 0.1 mm 6 m/S 727 mmHg 97%
    17:00 -1°C° 0.1 mm 6 m/S 726 mmHg 96%
    18:00 -1°C° 0.1 mm 6 m/S 726 mmHg 96%
    19:00 0°C° 0.1 mm 5 m/S 727 mmHg 96%
    20:00 -1°C° 0.1 mm 5 m/S 727 mmHg 96%
    21:00 -1°C° 0.1 mm 4 m/S 727 mmHg 96%
    22:00 0°C° 0 mm 3 m/S 727 mmHg 97%
    23:00 0°C° 0 mm 3 m/S 727 mmHg 97%

    übermorgen, 27 Februar, Donnerstag

    Zeit Temperatur Niederschläge Wind Luftdruck Luftfeuchtigkeit
    00:00 +1°C° 0 mm 2 m/S 727 mmHg 98%
    01:00 +1°C° 0.1 mm 2 m/S 727 mmHg 98%
    02:00 +1°C° 0.1 mm 2 m/S 727 mmHg 98%
    03:00 +1°C° 0.1 mm 2 m/S 727 mmHg 98%
    04:00 +1°C° 0.6 mm 2 m/S 727 mmHg 98%
    05:00 0°C° 0.6 mm 3 m/S 726 mmHg 98%
    06:00 0°C° 0.6 mm 3 m/S 726 mmHg 98%
    07:00 -1°C° 0.4 mm 4 m/S 726 mmHg 98%
    08:00 -1°C° 0.4 mm 4 m/S 726 mmHg 97%
    09:00 -1°C° 0.4 mm 4 m/S 725 mmHg 97%
    10:00 -1°C° 0.4 mm 4 m/S 725 mmHg 97%
    11:00 0°C° 0.4 mm 5 m/S 725 mmHg 97%
    12:00 0°C° 0.4 mm 5 m/S 725 mmHg 98%
    13:00 0°C° 0.1 mm 4 m/S 725 mmHg 98%
    14:00 0°C° 0.1 mm 4 m/S 725 mmHg 98%
    15:00 0°C° 0.1 mm 4 m/S 725 mmHg 98%
    16:00 0°C° 0.6 mm 4 m/S 725 mmHg 98%
    17:00 +1°C° 0.6 mm 3 m/S 725 mmHg 98%
    18:00 +1°C° 0.6 mm 3 m/S 725 mmHg 98%
    19:00 +1°C° 0.5 mm 3 m/S 725 mmHg 98%
    20:00 +1°C° 0.5 mm 3 m/S 725 mmHg 98%
    21:00 +1°C° 0.5 mm 3 m/S 725 mmHg 98%
    22:00 +1°C° 0.1 mm 3 m/S 725 mmHg 98%
    23:00 +2°C° 0.1 mm 2 m/S 725 mmHg 98%

    28 Februar, Freitag

    Zeit Temperatur Niederschläge Wind Luftdruck Luftfeuchtigkeit
    00:00 +1°C° 0.1 mm 2 m/S 725 mmHg 98%
    01:00 +1°C° 0.1 mm 2 m/S 725 mmHg 98%
    02:00 +1°C° 0.1 mm 2 m/S 724 mmHg 98%
    03:00 +2°C° 0.1 mm 1 m/S 724 mmHg 98%
    04:00 +1°C° 0.3 mm 2 m/S 724 mmHg 98%
    05:00 -1°C° 0.3 mm 2 m/S 723 mmHg 98%
    06:00 -1°C° 0.3 mm 3 m/S 723 mmHg 98%
    07:00 -1°C° 1.8 mm 3 m/S 723 mmHg 98%
    08:00 -2°C° 1.8 mm 4 m/S 723 mmHg 98%
    09:00 -2°C° 1.8 mm 5 m/S 722 mmHg 98%
    10:00 -2°C° 0.7 mm 5 m/S 722 mmHg 98%
    11:00 -2°C° 0.7 mm 5 m/S 722 mmHg 98%
    12:00 -3°C° 0.7 mm 6 m/S 722 mmHg 98%
    13:00 -3°C° 0.8 mm 6 m/S 723 mmHg 95%
    14:00 -3°C° 0.8 mm 7 m/S 723 mmHg 92%
    15:00 -3°C° 0.8 mm 7 m/S 724 mmHg 90%
    16:00 -3°C° 0.1 mm 7 m/S 725 mmHg 86%
    17:00 -3°C° 0.1 mm 7 m/S 726 mmHg 82%
    18:00 -4°C° 0.1 mm 6 m/S 727 mmHg 78%
    19:00 -4°C° 0 mm 6 m/S 727 mmHg 79%
    20:00 -5°C° 0 mm 6 m/S 728 mmHg 80%
    21:00 -5°C° 0 mm 6 m/S 729 mmHg 81%
    22:00 -5°C° 0 mm 6 m/S 729 mmHg 81%
    23:00 -5°C° 0 mm 6 m/S 729 mmHg 82%

    29 Februar, Samstag

    Zeit Temperatur Niederschläge Wind Luftdruck Luftfeuchtigkeit
    00:00 -6°C° 0 mm 7 m/S 730 mmHg 82%
    01:00 -7°C° 0 mm 7 m/S 730 mmHg 80%
    02:00 -7°C° 0 mm 7 m/S 731 mmHg 79%
    03:00 -7°C° 0 mm 7 m/S 731 mmHg 77%
    04:00 -6°C° 0 mm 6 m/S 731 mmHg 77%
    05:00 -6°C° 0 mm 6 m/S 732 mmHg 77%
    06:00 -8°C° 0 mm 6 m/S 732 mmHg 78%
    07:00 -6°C° 0 mm 6 m/S 732 mmHg 77%
    08:00 -6°C° 0 mm 6 m/S 733 mmHg 77%
    09:00 -6°C° 0 mm 6 m/S 733 mmHg 77%
    10:00 -5°C° 0 mm 6 m/S 733 mmHg 77%
    11:00 -4°C° 0 mm 6 m/S 733 mmHg 76%
    12:00 -3°C° 0 mm 6 m/S 734 mmHg 76%
    13:00 -3°C° 0 mm 6 m/S 734 mmHg 77%
    14:00 -3°C° 0 mm 6 m/S 734 mmHg 77%
    15:00 -2°C° 0 mm 6 m/S 734 mmHg 78%
    16:00 -2°C° 0 mm 5 m/S 734 mmHg 81%
    17:00 -2°C° 0 mm 5 m/S 734 mmHg 85%
    18:00 -4°C° 0 mm 5 m/S 734 mmHg 88%
    19:00 -4°C° 0.1 mm 5 m/S 734 mmHg 90%
    20:00 -4°C° 0.1 mm 5 m/S 734 mmHg 93%
    21:00 -3°C° 0.1 mm 4 m/S 734 mmHg 95%
    22:00 -3°C° 0.3 mm 4 m/S 735 mmHg 93%
    23:00 -3°C° 0.3 mm 4 m/S 735 mmHg 92%

    1 März, Sonntag

    Zeit Temperatur Niederschläge Wind Luftdruck Luftfeuchtigkeit
    00:00 -4°C° 0.3 mm 3 m/S 735 mmHg 90%
    01:00 -4°C° 0 mm 3 m/S 735 mmHg 88%
    02:00 -5°C° 0 mm 3 m/S 736 mmHg 86%
    03:00 -6°C° 0 mm 3 m/S 736 mmHg 84%
    04:00 -6°C° 0 mm 3 m/S 736 mmHg 85%
    05:00 -7°C° 0 mm 3 m/S 737 mmHg 86%
    06:00 -7°C° 0 mm 3 m/S 737 mmHg 86%
    07:00 -7°C° 0 mm 3 m/S 737 mmHg 88%
    08:00 -6°C° 0 mm 3 m/S 738 mmHg 89%
    09:00 -6°C° 0 mm 3 m/S 738 mmHg 91%
    10:00 -5°C° 0 mm 3 m/S 738 mmHg 90%
    11:00 -4°C° 0 mm 3 m/S 738 mmHg 89%
    12:00 -2°C° 0 mm 3 m/S 738 mmHg 88%
    13:00 -2°C° 0 mm 3 m/S 738 mmHg 87%
    14:00 -2°C° 0 mm 3 m/S 738 mmHg 86%
    15:00 -1°C° 0 mm 3 m/S 738 mmHg 85%
    16:00 -2°C° 0 mm 3 m/S 738 mmHg 87%
    17:00 -4°C° 0 mm 3 m/S 738 mmHg 89%
    18:00 -5°C° 0 mm 4 m/S 738 mmHg 91%
    19:00 -4°C° 0 mm 4 m/S 738 mmHg 88%
    20:00 -4°C° 0 mm 4 m/S 738 mmHg 86%
    21:00 -5°C° 0 mm 5 m/S 738 mmHg 83%
    22:00 -5°C° 0 mm 5 m/S 738 mmHg 84%
    23:00 -5°C° 0 mm 5 m/S 738 mmHg 85%
    Mehr zeigen